[[{"header":{"parameterUnit":"m.s-1","parameterCategory":1,"la1":30.2991,"la2":30.254,"lo1":-89.0895,"lo2":-89.0444,"dy":0.0017,"dx":0.0017,"nx":28,"ny":28,"refTime":"2024-05-12T21:00:00:Z","depth":0,"parameterNumber":2,"parameterNumberName":"U-component_of_WINDS"},"data":[0,0,0,0,0,0,0,0,0,0,0,0,0,0,0,0,0,0,0,0,0,0,0,0,0,0,0,0,0,0,0,0,0,0,0,0,0,0,0,0,0,0,0,0,0,0,0,0,0,0,0,0,0,0,0,0,0,0,-5.862,-5.8619,0,-5.8555,-5.8554,-5.8553,-5.8408,-5.8405,-5.8402,-5.8399,-5.8336,-5.8337,-5.8338,0,0,0,0,0,0,0,0,0,0,0,0,0,-5.8624,-5.8625,-5.862,-5.8619,-5.8619,-5.8555,-5.8554,-5.8553,-5.8409,-5.8405,-5.8401,-5.8398,-5.8336,-5.8337,-5.8338,0,0,0,0,0,0,0,0,0,0,0,0,0,-5.8597,-5.8625,-5.862,-5.8539,-5.8531,-5.8555,-5.8554,-5.8553,-5.8409,-5.8405,-5.84,-5.8396,-5.8335,-5.8337,-5.8338,-5.8438,0,0,-5.8343,-5.8344,0,0,0,0,0,0,0,0,-5.8599,-5.8597,-5.8551,-5.8544,-5.8535,-5.8485,-5.8532,-5.8515,-5.8411,-5.8456,-5.8399,-5.8394,-5.8389,-5.8386,-5.8384,-5.8435,-5.8432,-5.8344,-5.8345,-5.8345,-5.8346,0,0,0,0,0,0,0,-5.8601,-5.8599,-5.8594,-5.8551,-5.8541,-5.8507,-5.8498,-5.8528,-5.8449,-5.8451,-5.8441,-5.8435,-5.8384,-5.8383,-5.8381,-5.8431,-5.8343,-5.8345,-5.8346,-5.8347,-5.8562,-5.8567,0,0,0,0,0,0,-5.8614,-5.8602,-5.8596,-5.8592,-5.8557,-5.851,-5.8501,-5.8506,-5.8448,-5.8434,-5.8439,-5.8428,-5.8382,-5.838,-5.8379,-5.8491,-5.8345,-5.8347,-5.8348,-5.8558,-5.8564,-5.8569,0,0,0,0,0,0,-5.8615,-5.8615,-5.8599,-5.8594,-5.8589,-5.8515,-5.8522,-5.8507,-5.8505,-5.8438,-5.8424,-5.8451,-5.8379,-5.8376,-5.8424,-5.8487,-5.8348,-5.8349,-5.8552,-5.856,-5.8566,-5.8718,0,0,0,0,0,0,-5.8616,-5.8616,-5.8652,-5.8596,-5.859,-5.8645,-5.8526,-5.8509,-5.8508,-5.8494,-5.8446,-5.8434,-5.8375,-5.8423,-5.8426,-5.8487,-5.835,-5.8546,-5.8555,-5.8564,-5.8707,-5.8729,-5.8748,0,0,0,0,0,-5.8616,-5.8698,-5.8654,-5.8654,-5.8633,-5.8649,-5.8645,-5.8574,-5.8514,-5.8549,-5.8507,-5.8436,-5.8481,-5.8429,-5.8431,-5.8494,-5.8542,-5.8553,-5.8563,-5.8697,-5.8725,-5.8748,0,0,0,0,0,0,-5.8763,-5.8689,-5.864,-5.8705,-5.8685,-5.8624,-5.8667,-5.8606,-5.8602,-5.8589,-5.8503,-5.8493,-5.8553,-5.8528,-5.8472,-5.8588,-5.85,-5.8512,-5.8601,-5.8626,-5.8647,-5.865,-5.8352,0,0,0,0,0,-5.8803,-5.8821,-5.8755,-5.8819,-5.8811,-5.8742,-5.8746,-5.8693,-5.8668,-5.8659,-5.862,-5.8599,-5.8609,-5.8617,-5.8622,-5.8704,-5.8691,-5.8748,-5.8769,-5.8786,-5.8797,-5.8839,-5.8863,-5.8604,-5.8604,-5.8603,0,0,-5.8886,-5.8847,-5.8864,-5.8848,-5.8825,-5.8847,-5.8735,-5.8762,-5.8777,-5.8663,-5.8705,-5.8677,-5.8649,-5.8715,-5.8741,-5.8696,-5.8866,-5.88,-5.8814,-5.8815,-5.8852,-5.8877,-5.8899,-5.8611,-5.861,-5.8609,0,0,-5.9047,-5.902,-5.907,-5.905,-5.9018,-5.8971,-5.8984,-5.8933,-5.8909,-5.8951,-5.8866,-5.8885,-5.8902,-5.8886,-5.888,-5.9039,-5.8973,-5.9043,-5.9151,-5.9193,-5.9213,-5.9231,-5.9287,-5.9308,-5.9054,-5.9055,-5.9055,0,-5.9153,-5.918,-5.9104,-5.9136,-5.9133,-5.9031,-5.9082,-5.9067,-5.9039,-5.904,-5.8989,-5.901,-5.8984,-5.9045,-5.9084,-5.9083,-5.9095,-5.9047,-5.9217,-5.9233,-5.9249,-5.9301,-5.9323,-5.9063,-5.9062,-5.9062,-5.9061,0,-5.9313,-5.9334,-5.9379,-5.9353,-5.9355,-5.9397,-5.9329,-5.934,-5.9289,-5.9249,-5.9293,-5.9259,-5.9256,-5.9267,-5.9217,-5.9321,-5.9294,-5.9232,-5.9141,-5.9283,-5.9331,-5.9351,-5.9076,-5.9073,-5.907,-5.9068,0,0,-5.9561,-5.9494,-5.9512,-5.9499,-5.9458,-5.9473,-5.9512,-5.9508,-5.9519,-5.9505,-5.9535,-5.9555,-5.9497,-5.9491,-5.9439,-5.9477,-5.9604,-5.9409,-5.9407,-5.9446,-5.9717,-5.9763,-5.9787,-5.9562,-5.9566,-5.9568,-5.9719,0,-5.971,-5.977,-5.9704,-5.9779,-5.9798,-5.9704,-5.9738,-5.9717,-5.9682,-5.9694,-5.9655,-5.967,-5.9593,-5.9588,-5.9622,-5.9582,-5.9657,-5.957,-5.959,-5.9591,-5.9597,-5.9812,-5.986,-6.0003,-5.9737,-5.974,-5.9743,0,-5.9891,-5.9884,-5.9961,-5.9916,-5.9921,-5.9953,-5.9944,-5.9957,-5.9933,-5.9905,-5.99,-5.9838,-5.9874,-5.9789,-5.9839,-5.9781,-5.9786,-5.9768,-5.9772,-5.9769,-5.9674,-5.9814,-6.0047,-6.0068,-5.9771,-5.9769,-5.9767,0,-6.0063,-6.0073,-6.012,-6.0113,-6.0062,-6.0086,-6.0066,-6.0038,-6.004,-6.0034,-6.0035,-6.0035,-6.0034,-6.0036,-5.9976,-5.9919,-6.0034,-5.9943,-6.0012,-6.0014,-6.0038,-6.0036,-6.0274,-6.0045,-6.0045,-6.0044,-6.0044,0,-6.0235,-6.0285,-6.0196,-6.0225,-6.028,-6.0205,-6.0262,-6.0232,-6.0208,-6.0231,-6.0151,-6.0175,-6.0095,-6.0111,-6.0065,-6.0114,-6.0115,-6.0093,-6.008,-6.0099,-6.0102,-6.0099,-6.0087,-6.005,-6.0049,-6.0048,-6.0047,0,-6.0434,-6.0377,-6.0421,-6.037,-6.0359,-6.0401,-6.0358,-6.0383,-6.0344,-6.0374,-6.0377,-6.0316,-6.033,-6.0272,-6.0277,-6.0246,-6.0318,-6.0289,-6.0326,-6.0316,-6.0388,-6.0381,-6.063,-6.0658,-6.0414,-6.0416,-6.0418,0,-6.0546,-6.0582,-6.0536,-6.0545,-6.0529,-6.0545,-6.0547,-6.0477,-6.0483,-6.046,-6.0489,-6.0497,-6.0499,-6.0527,-6.0484,-6.0488,-6.0457,-6.0544,-6.0457,-6.0476,-6.0457,-6.0455,-6.0458,-6.0562,-6.0565,-6.0567,-6.0569,0,-6.0751,-6.0722,-6.0727,-6.0724,-6.0729,-6.0724,-6.0713,-6.0725,-6.065,-6.0662,-6.0675,-6.0677,-6.0682,-6.0692,-6.0687,-6.0668,-6.0607,-6.0598,-6.0613,-6.0632,-6.0651,-6.064,-6.0373,-6.0591,-6.0589,-6.0587,-6.0586,-6.0585,-6.0909,-6.0937,-6.0909,-6.0918,-6.0903,-6.0896,-6.0917,-6.0881,-6.0891,-6.0889,-6.0848,-6.087,-6.0848,-6.0835,-6.0823,-6.084,-6.0799,-6.0822,-6.0828,-6.0834,-6.0846,-6.0651,-6.0839,-6.0839,-6.0838,-6.0837,-6.0837,0,-6.1108,-6.1086,-6.1096,-6.1083,-6.1092,-6.1034,-6.102,-6.1031,-6.1051,-6.1035,-6.1039,-6.1056,-6.1065,-6.1025,-6.1028,-6.105,-6.1023,-6.1054,-6.105,-6.1047,-6.0883,-6.0868,-6.1076,-6.1076,-6.1076,-6.1076,-6.1076,-6.1076,-6.1213,-6.1257,-6.1226,-6.1263,-6.1241,-6.1261,-6.1258,-6.1251,-6.1238,-6.126,-6.1267,-6.124,-6.1215,-6.1217,-6.1223,-6.1211,-6.1216,-6.1257,-6.1235,-6.1082,-6.1058,-6.1036,-6.1022,-6.1259,-6.1259,-6.1397,-6.1399,-6.14]},{"header":{"parameterUnit":"m.s-1","parameterCategory":1,"la1":30.2991,"la2":30.254,"lo1":-89.0895,"lo2":-89.0444,"dy":0.0017,"dx":0.0017,"nx":28,"ny":28,"refTime":"2024-05-12T21:00:00:Z","depth":0,"parameterNumber":3,"parameterNumberName":"V-component_of_WINDS"},"data":[0,0,0,0,0,0,0,0,0,0,0,0,0,0,0,0,0,0,0,0,0,0,0,0,0,0,0,0,0,0,0,0,0,0,0,0,0,0,0,0,0,0,0,0,0,0,0,0,0,0,0,0,0,0,0,0,0,0,3.4398,3.4398,0,3.4348,3.4347,3.4347,3.4303,3.4302,3.4302,3.4301,3.4246,3.4245,3.4244,0,0,0,0,0,0,0,0,0,0,0,0,0,3.4456,3.4455,3.4398,3.4398,3.4397,3.4348,3.4347,3.4347,3.4303,3.4302,3.4302,3.4301,3.4247,3.4246,3.4244,0,0,0,0,0,0,0,0,0,0,0,0,0,3.442,3.4454,3.4399,3.437,3.4366,3.4348,3.4347,3.4346,3.4303,3.4302,3.4301,3.4301,3.4247,3.4246,3.4244,3.425,0,0,3.424,3.4239,0,0,0,0,0,0,0,0,3.4422,3.4418,3.4374,3.4371,3.4368,3.4331,3.4347,3.4314,3.4303,3.4327,3.4301,3.43,3.4275,3.4271,3.4263,3.4247,3.4245,3.4239,3.4239,3.4238,3.4237,0,0,0,0,0,0,0,3.4425,3.442,3.4378,3.4374,3.437,3.4359,3.4353,3.4341,3.4306,3.4325,3.4322,3.4316,3.4273,3.4265,3.4261,3.4244,3.4239,3.4238,3.4237,3.4237,3.4231,3.4232,0,0,0,0,0,0,3.4432,3.4423,3.438,3.4377,3.4394,3.4358,3.4352,3.4344,3.4306,3.4299,3.4317,3.4314,3.4268,3.4263,3.4259,3.4264,3.4238,3.4236,3.4236,3.423,3.4231,3.4232,0,0,0,0,0,0,3.4434,3.4429,3.4382,3.4399,3.4392,3.4358,3.4349,3.4343,3.4335,3.43,3.4293,3.4315,3.4267,3.4261,3.4253,3.4261,3.4236,3.4234,3.423,3.4231,3.4232,3.4273,0,0,0,0,0,0,3.4435,3.443,3.4431,3.4399,3.4391,3.4377,3.435,3.4342,3.4332,3.4329,3.4296,3.429,3.4266,3.4255,3.4251,3.4259,3.4233,3.4229,3.423,3.4231,3.427,3.4275,3.4279,0,0,0,0,0,3.4438,3.4444,3.4432,3.4427,3.4393,3.4377,3.4373,3.4346,3.4333,3.4335,3.4313,3.4291,3.4262,3.4255,3.425,3.4257,3.4228,3.423,3.4231,3.4268,3.4274,3.4279,0,0,0,0,0,0,3.4476,3.4439,3.4425,3.4421,3.4403,3.437,3.4371,3.4352,3.4336,3.4333,3.43,3.4293,3.4288,3.4272,3.4265,3.4261,3.4242,3.4243,3.4272,3.4277,3.4281,3.4284,3.4232,0,0,0,0,0,3.4485,3.4476,3.4443,3.4443,3.4435,3.4405,3.4397,3.4378,3.4357,3.4349,3.4326,3.4306,3.4292,3.4284,3.4269,3.4268,3.4261,3.4271,3.4275,3.4279,3.428,3.4279,3.4283,3.4238,3.4238,3.4238,0,0,3.4501,3.448,3.4476,3.4451,3.4434,3.4425,3.4398,3.439,3.4383,3.4347,3.4338,3.4321,3.4297,3.4292,3.4289,3.4278,3.4291,3.4281,3.4285,3.4283,3.4281,3.4285,3.4289,3.4239,3.4239,3.4239,0,0,3.4527,3.451,3.4508,3.4493,3.4469,3.445,3.445,3.442,3.4408,3.4398,3.4372,3.4363,3.434,3.4324,3.4313,3.4336,3.4315,3.4332,3.4354,3.4353,3.4357,3.436,3.4368,3.4371,3.4333,3.4333,3.4333,0,3.455,3.4536,3.4509,3.4503,3.4493,3.4463,3.4461,3.4447,3.4419,3.4413,3.4402,3.4373,3.4355,3.4347,3.4353,3.4345,3.4343,3.4334,3.4359,3.4361,3.4364,3.4371,3.4374,3.4335,3.4335,3.4335,3.4334,0,3.4566,3.4557,3.4558,3.4534,3.4524,3.452,3.4493,3.4486,3.4469,3.4451,3.4442,3.4419,3.44,3.4397,3.4379,3.4387,3.4381,3.4365,3.4345,3.4371,3.4377,3.438,3.4338,3.4337,3.4337,3.4336,0,0,3.4611,3.4575,3.4576,3.4565,3.4538,3.453,3.4525,3.4508,3.4503,3.4486,3.4481,3.4463,3.4449,3.4436,3.4417,3.4417,3.4437,3.4401,3.44,3.4408,3.4444,3.4456,3.446,3.4424,3.4424,3.4425,3.4446,0,3.4632,3.4622,3.4599,3.4596,3.4588,3.456,3.4556,3.4539,3.4523,3.4513,3.4494,3.4482,3.4464,3.4457,3.4455,3.4435,3.4444,3.4433,3.4418,3.4418,3.4424,3.4463,3.4475,3.4497,3.4449,3.4449,3.4449,0,3.4654,3.4641,3.4637,3.4612,3.4608,3.4605,3.4588,3.4579,3.4559,3.4547,3.4535,3.4515,3.4508,3.4491,3.4481,3.4474,3.4467,3.4457,3.4457,3.4454,3.4435,3.446,3.4503,3.4506,3.4453,3.4453,3.4452,0,3.4688,3.4669,3.4665,3.4656,3.4627,3.4625,3.4613,3.4593,3.4585,3.457,3.4564,3.4549,3.454,3.4528,3.4504,3.4494,3.4498,3.4478,3.4487,3.4488,3.4488,3.4488,3.4529,3.4485,3.4485,3.4485,3.4485,0,3.4713,3.4712,3.468,3.4677,3.4675,3.4649,3.4648,3.4633,3.4616,3.461,3.4585,3.458,3.4549,3.454,3.4521,3.4516,3.4512,3.4502,3.4497,3.4504,3.4505,3.4498,3.4496,3.4485,3.4485,3.4485,3.4485,0,3.475,3.4728,3.4722,3.4696,3.4689,3.4689,3.4666,3.4663,3.4646,3.4639,3.4635,3.4608,3.4597,3.4572,3.4553,3.4541,3.4541,3.4532,3.4547,3.4544,3.4555,3.4554,3.4592,3.4596,3.4549,3.455,3.455,0,3.4767,3.4766,3.474,3.4735,3.4724,3.4716,3.4708,3.4683,3.4675,3.4655,3.4654,3.4641,3.4629,3.4612,3.459,3.4576,3.4566,3.4581,3.4564,3.4571,3.4566,3.4567,3.4566,3.4584,3.4585,3.4585,3.4585,0,3.4799,3.4789,3.4779,3.4766,3.4758,3.4746,3.4732,3.4729,3.4701,3.4694,3.4683,3.4674,3.4657,3.4644,3.4627,3.4614,3.4595,3.4591,3.4593,3.4599,3.4609,3.4604,3.4557,3.459,3.459,3.4589,3.4589,3.4589,3.4826,3.4825,3.4807,3.4797,3.4785,3.4774,3.477,3.4753,3.4744,3.4728,3.4714,3.4704,3.4686,3.4662,3.465,3.4642,3.4633,3.4635,3.4635,3.4636,3.4639,3.4611,3.4639,3.4639,3.4639,3.4639,3.4638,0,3.4858,3.4846,3.4837,3.482,3.4813,3.4798,3.4783,3.4777,3.4769,3.4755,3.4744,3.4732,3.472,3.4699,3.4685,3.4683,3.4674,3.468,3.468,3.4677,3.4648,3.4648,3.4688,3.4688,3.4688,3.4688,3.4688,3.4688,3.4873,3.487,3.4858,3.4849,3.4836,3.4828,3.4821,3.481,3.4799,3.4787,3.4777,3.4764,3.4747,3.4732,3.4721,3.4715,3.4711,3.472,3.4711,3.4684,3.4679,3.4675,3.4675,3.4719,3.4719,3.4741,3.4741,3.4741]}]]